www.pogodaiklimat.ru

Погода и климат >> Архив погоды >> Россия >> Краснодарский край >> Горный


ПОГОДА в Горном

  • Прогноз погоды в Горном
  • Монитор погоды в Горном
  • Климат города

АРХИВ ПОГОДЫ в Горном

Время (UTC), дата Ветер
(напр.,м/с)
 
Видим.   Явления Облачность Т
(С)
Тd
(С)
f
(%)
Тe
(С)
Тes
(С)
Комфортность P
(гПа)
Po
(гПа)
Тmin
(С)
Tmax
(С)
R
(мм)
R24
(мм)
S
(см)
21 16.06 Ю 2 500 м туман 3/3 600 м
[Sc diur, vesp]
+11.2 +11.2 100 +10 +10 1017.9 979.5
00 17.06 штиль 0 50 км местами туман поземный ясно +9.7 +9.7 100 +9 +9 1017.7 979.0
03 17.06 Ю 1 50 км местами туман поземный 8/5 600 м
[Sc Ci sp]
+12.3 +11.1 92 +12 +13 1016.8 978.5 +8.9 2
06 17.06 ЮЗ 4 50 км 6/3 600 м
[Sc diur, vesp Ac cast]
+17.5 +11.2 67 +17 +21 1015.0 977.5
09 17.06 Ю 4 50 км 9/4 600 м
[Sc diur, vesp Ac cast Ci]
+20.2 +10.2 53 +22 +26 комфорт 1013.8 976.7
12 17.06 ЮЗ 3 50 км 8/8 600 м
[Sc diur, vesp]
+21.7 +8.8 44 +23 +25 комфорт 1012.1 975.2
15 17.06 СВ 3 50 км 6/4 600 м
[Sc diur, vesp Ci fib]
+21.2 +10.3 50 +23 +24 комфорт 1010.6 973.8 +22.7
18 17.06 СВ 1 50 км 3/0
[Ci fib]
+15.6 +10.9 74 +16 +16 1011.1 973.5
21 17.06 С 2 50 км ясно +12.4 +11.1 92 +11 +11 1010.7 972.7
00 18.06 С 2 50 км местами туман поземный ясно +10.2 +10.2 100 +9 +9 1010.3 972.0
03 18.06 СВ 2 50 км местами туман поземный 10/3 600 м
[Sc Ac lent Cs]
+9.7 +9.7 100 +8 +8 1009.9 971.5 +8.8
06 18.06 СВ 1 50 км 8/0
[Ci fib]
+18.6 +11.4 63 +20 +31 1008.3 971.2
09 18.06 ЮЗ 2 50 км 10/3 600 м
[Sc Ac cast Cc]
+22.6 +10.7 47 +25 +31 комфорт 1008.3 971.6
12 18.06 ЮЗ 2 20 км слабый ливневой дождь 10/10 600 м
[Cb cap]
+19.8 +13.3 66 +22 +22 комфорт 1009.4 972.4
15 18.06 С 1 20 км слабый ливневой дождь 10/10 600 м
[Cb cap]
+17.4 +14.5 83 +18 +18 1010.1 972.8 +24.5 0.0
18 18.06 СВ 3 20 км {ливн. осадки} 10/5 600 м
[Sc diur, vesp Ac lent Ci sp]
+16.3 +15.1 93 +16 +16 1010.2 972.8
21 18.06 СЗ 1 20 км 10/10 600 м
[Sc diur, vesp]
+15.0 +15.0 100 +15 +15 1010.8 973.1
00 19.06 С 1 10 км слабый ливневой дождь 10/10 600 м
[Cb cap]
+14.4 +14.4 100 +15 +15 1009.8 972.1
03 19.06 штиль 0 10 км слабый ливневой дождь 10/10 600 м
[Cb cap]
+14.3 +14.3 100 +14 +14 1010.5 972.8 +14.2 2
06 19.06 С 1 10 км слабый ливневой дождь 10/10 600 м
[Cb cap]
+15.7 +15.7 100 +16 +16 1010.1 972.6
09 19.06 СВ 2 20 км в посл. час ливневой дождь 10/10 600 м
[Cb calv]
+19.7 +16.2 80 +23 +23 комфорт 1009.1 972.2
12 19.06 С 1 20 км {ливн. осадки} 10/8 600 м
[Sc diur, vesp Ci ing]
+20.2 +15.3 73 +24 +26 комфорт 1008.3 971.5
15 19.06 СВ 3 20 км 10/10 600 м
[Sc]
+18.6 +15.4 82 +20 +20 1008.2 971.2 +21.1 2
18 19.06 В 3 20 км {ливн. осадки} 10/10 600 м
[Sc diur, vesp]
+17.5 +14.6 83 +18 +18 1008.2 971.0
21 19.06 С 2 20 км слабый ливневой дождь 10/10 600 м
[Cb cap]
+16.5 +15.2 92 +17 +17 1008.0 970.7
00 20.06 С 2 4000 м ливневой дождь 10/10 600 м
[Cb cap]
+15.7 +15.7 100 +16 +16 1007.4 970.0
03 20.06 С 3 10 км слабый ливневой дождь 10/10 600 м
[Cb cap]
+14.8 +14.8 100 +14 +14 1006.8 969.3 +14.7 8
06 20.06 С 2 10 км слабый ливневой дождь 10/10 600 м
[Cb cap]
+16.1 +16.1 100 +16 +16 1007.3 969.9
09 20.06 С 2 10 км слабый ливневой дождь 10/10 600 м
[Cb cap]
+15.5 +15.5 100 +15 +15 1008.5 971.0
12 20.06 С 2 10 км слабый ливневой дождь 10/10 300 м
[Cb cap]
+15.9 +15.9 100 +16 +16 1009.4 971.9
15 20.06 штиль 0 20 км слабый ливневой дождь 10/10 600 м
[Cb cap]
+17.0 +16.6 97 +17 +17 1009.1 971.8 +17.0 18
18 20.06 штиль 0 500 м туман {ливн. осадки} 10/10 600 м
[Sc diur, vesp]
+15.5 +15.5 100 +15 +15 1010.0 972.5
21 20.06 ЮЗ 1 500 м туман 10/10 600 м
[Sc]
+15.3 +15.3 100 +16 +16 1010.5 972.9
00 21.06 Ю 1 500 м туман 10/10 600 м
[Sc]
+15.2 +15.2 100 +16 +16 1010.3 972.7
03 21.06 С 1 500 м туман 9/0
[Ac cast Cs]
+14.9 +14.9 100 +15 +16 1010.4 972.8 +14.7
06 21.06 В 1 50 км {туман} 1/0
[Ci fib]
+21.1 +16.5 75 +25 +37 комфорт 1009.4 972.6
09 21.06 СВ 2 50 км 3/3 600 м
[Cu med, cong]
+24.6 +12.0 45 +26 +40 жарко 1008.8 972.4
12 21.06 ЮЗ 6-12
{12}
50 км 5/5 600 м
[Cb calv]
+22.6 +16.3 68 +27 +30 душно 1008.9 972.3
15 21.06 ЮЗ 4
{12}
50 км 3/3 600 м
[Cu med, cong]
+20.1 +15.9 77 +23 +24 комфорт 1009.5 972.6 +26.4
18 21.06 З 3 50 км 4/3 600 м
[Sc Ac cast]
+17.5 +15.9 90 +17 +17 1010.8 973.5
21 21.06 ЮЗ 4 50 км местами туман поземный ясно +16.6 +16.6 100 +16 +16 1011.1 973.7
00 22.06 ЮЗ 4 50 км местами туман поземный 4/4 600 м
[Sc]
+15.4 +15.4 100 +14 +14 1011.2 973.3
03 22.06 ЮЗ 4 50 км местами туман поземный 3/3 600 м
[Cu Sc]
+16.4 +15.2 93 +16 +16 1011.1 973.6 +14.3
06 22.06 ЮЗ 7-11
{11}
50 км 3/3 600 м
[Cu med, cong]
+20.2 +13.9 67 +22 +24 комфорт 1010.9 973.9
09 22.06 ЮЗ 3
{11}
50 км 10/8 600 м
[Sc Ac cast]
+21.4 +14.0 63 +24 +25 комфорт 1012.5 975.5
12 22.06 Ю 5
{10}
50 км {ливн. осадки} 9/5 600 м
[Sc diur, vesp Ac lent]
+20.2 +16.3 78 +23 +24 комфорт 1012.1 975.1
15 22.06 ЮЗ 2 50 км 9/6 600 м
[Sc diur, vesp Ci fib]
+20.4 +13.9 66 +23 +24 комфорт 1012.9 975.9 +22.8 2
18 22.06 З 2 50 км 10/4 600 м
[Sc Ci sp]
+18.0 +15.6 86 +19 +19 1013.8 976.5
21 22.06 ЮЗ 3 50 км 10/6 600 м
[Sc Ac lent]
+17.7 +15.5 87 +18 +18 1014.7 977.3
00 23.06 штиль 0 20 км местами туман поземный 8/4 600 м
[Sc Ci]
+15.7 +15.7 100 +15 +15 1014.7 977.0
03 23.06 штиль 0 200 м туман 10/4 600 м
[Sc Ci]
+14.7 +14.7 100 +14 +15 1014.7 976.9 +14.0
06 23.06 ЮЗ 5 10 км гроза, ливневой дождь 8/8 600 м
[Cb cap]
+17.7 +15.8 89 +17 +18 1015.2 977.8
09 23.06 ЮЗ 5 20 км в посл. час гроза {ливн. осадки} 8/8 600 м
[Cb calv]
+19.3 +15.3 78 +21 +23 комфорт 1015.7 978.4
12 23.06 Ю 5
{11}
20 км {гроза, ливн. осадки} 10/8 600 м
[Sc diur, vesp Ci ing]
+20.9 +15.9 73 +24 +25 комфорт 1014.6 977.6
15 23.06 ЮЗ 4
{10}
50 км {гроза, ливн. осадки} 8/4 600 м
[Sc diur, vesp Ci ing]
+19.6 +15.7 78 +22 +23 комфорт 1014.3 977.2 +22.1 13
18 23.06 ЮЗ 4 50 км {гроза, ливн. осадки} 3/3 600 м
[Sc]
+17.9 +15.4 85 +18 +18 1014.7 977.3

 

Местоположение метеостанции Горный (Краснодарский край, Россия): широта 44.28 долгота 39.27 высота над уровнем моря 323 м.

В архиве по умолчанию представлена погода в Горном за последнюю неделю. Архивные данные за месяц целиком и за предыдущие месяцы, начиная с января 2011 года, Вы можете получить, выбрав интересующий диапазон дат из раскрывающегося списка и нажав кнопку "Ввод!".

Внимание! Время в таблицах - всемирное. Для получения местного времени необходимо прибавить поправку, которая в Горном равна 3 ч.

Смотрите также архив погоды в соседних городах и на ближайших метеорологических станциях:

Погода в Туапсе (Краснодарский край, Россия) (26 км)
Погода в Горячем Ключе (Краснодарский край, Россия) (41 км)
Погода в Джубге (Краснодарский край, Россия) (44 км)
Погода в Шунтуке (Адыгея, Россия) (71 км)
Погода в Белореченске (Краснодарский край, Россия) (72 км)
Погода в Майкопе (Адыгея, Россия) (75 км)
Погода в Гузерипле (Адыгея, Россия) (75 км)
Погода в Сочи (Краснодарский край, Россия) (88 км)
Погода в Краснодаре (Краснодарский край, Россия) (88 км)
Погода в Кепше (Краснодарский край, Россия) (96 км)

Пояснения к столбцам:

Ветер - указаны скорость ветра в м/с - средняя за 10 мин, порывы в срок и между сроками (в фигурных скобках) и направление, откуда дует ветер: С - северный, СВ - северо-восточный, В - восточный, ЮВ - юго-восточный, Ю - южный, ЮЗ - юго-западный, З - западный, СЗ - северо-западный.
Видимость - горизонтальная дальность видимости в метрах или километрах. При видимости от 1 до 10 км при отсутствии осадков обычно наблюдается дымка, при ухудшении видимости до 1 км и менее - туман. В сухую погоду видимость может ухудшаться дымом, пылью или мглою.
Явления - указаны атмосферные явления, наблюдавшиеся в срок или в последний час перед сроком; фигурными скобками обозначены явления, наблюдавшиеся между сроками (за 1-3 часа до срока); квадратными скобками обозначены град или гололедные отложения с указанием их диаметра в мм.
Облачность - указаны через наклонную черту общая и нижняя облачность в баллах и высота нижней границы облаков в метрах; квадратными скобками обозначены формы облаков: Ci - перистые, Cs - перисто-слоистые, Cc - перисто-кучевые, Ac - высококучевые, As - высокослоистые, Sc - слоисто-кучевые, Ns - слоисто-дождевые, Cu - кучевые, Cb - кучево-дождевые. Подробнее классификацию облаков см. в Атласе облаков (PDF).
T - Температура воздуха - температура, измеренная на высоте 2 м над землей.
Td - Температура точки росы - температура, при понижении до которой содержащийся в воздухе водяной пар достигнет насыщения.
f - Относительная влажность воздуха - влажноcть воздуха, измеренная на высоте 2 м над землей.
Te - Эффективная температура - температура, которую ощущает одетый по сезону человек в тени. Характеристика душности погоды. При расчете учитывается влияние влажности воздуха и скорости ветра на теплоощущения человека.
Tes - Эффективная температура на солнце - температура, которую ощущает человек, с поправкой на солнечный нагрев. Характеристика знойности погоды. Зависит от высоты солнца над горизонтом, облачности и скорости ветра. Ночью, в пасмурную погоду, а также при ветре 12 м/с и более поправка равна нулю.
P - Атмосферное давление - приведенное к уровню моря атмосферное давление.
Po - Атмосферное давление - измеренное на уровне метеостанции атмосферное давление.
Tmin - Минимальная температура - минимум температуры воздуха на высоте 2 м над землей.
Tmax - Максимальная температура - максимум температуры воздуха на высоте 2 м над землей.
R - Количество осадков - Количество выпавших осадков за период времени, мм. При наведении курсора мыши на число - период времени, за который выпало указанное количество осадков.
R24 - Количество осадков - Количество выпавших осадков за 24 часа, мм.
S - Снежный покров - Высота снежного покрова, см. При наведении курсора мыши на число - состояние снежного покрова и степень покрытия местности в баллах.